Jacksonville NAS, FL

10:03 PM EDT on July 25, 2017 (GMT -0400)
Jacksonville Naval Air Station

Weather History for KNIP - January, 2014

Change the Weather History Date:

Friday, January 17, 2014

  Actual Average Record
Temperature  
Mean Temperature 52 °F -  
Max Temperature 66 °F 63 °F 79 °F (2017)
Min Temperature 37 °F 44 °F 46 °F (2015)
Degree Days  
Heating Degree Days 14    
Growing Degree Days 2 (Base 50)    
Moisture  
Dew Point 37 °F    
Average Humidity 57    
Maximum Humidity 70    
Minimum Humidity 38    
Precipitation  
Precipitation 0.00 in - - ()
Sea Level Pressure  
Sea Level Pressure 30.11 in    
Wind  
Wind Speed 7 mph (SW)    
Max Wind Speed 17 mph    
Max Gust Speed -    
Visibility 10 miles    
Events      
Averages and records for this station are not official NWS values.
T = Trace of Precipitation, MM = Missing Value Source: NWS Daily Summary

Daily Weather History Graph

Daily Weather History Graph

Search for Another Location

Airport or City:

Trip Planner

Search our weather history database for the weather conditions in past years. The results will help you decide how hot, cold, wet, or windy it might be!

Date:

Astronomy

Jan. 17, 2014 Rise Set
Actual Time 7:23 AM EST 5:50 PM EST
Civil Twilight 6:57 AM EST 6:16 PM EST
Nautical Twilight 6:28 AM EST 6:45 PM EST
Astronomical Twilight 5:59 AM EST 7:14 PM EST
Moon 7:25 PM EST (1/17) 7:59 AM EST (1/17)
Length of Visible Light 11h 18m
Length of Day
10h 27m
Full, 98% of the Moon is Illuminated
Jan 17
Full
Jan 24
Last Quarter
Jan 30
New
Feb 6
First Quarter
Feb 14
Full

Hourly Weather History & Observations

Time (EST) Temp. Windchill Dew Point Humidity Pressure Visibility Wind Dir Wind Speed Gust Speed Precip Events Conditions
12:53 AM 39.9 °F 35.8 °F 28.9 °F 65% 30.15 in 10.0 mi WSW 5.8 mph - N/A   Clear
1:53 AM 37.9 °F 33.5 °F 28.9 °F 70% 30.14 in 10.0 mi WSW 5.8 mph - N/A   Clear
2:53 AM 37.9 °F 32.7 °F 28.9 °F 70% 30.14 in 10.0 mi WSW 6.9 mph - N/A   Clear
3:53 AM 39.9 °F 35.8 °F 28.0 °F 63% 30.15 in 10.0 mi West 5.8 mph - N/A   Clear
4:53 AM 39.0 °F - 28.0 °F 65% 30.14 in 10.0 mi Calm Calm - N/A   Partly Cloudy
5:53 AM 37.9 °F - 28.9 °F 70% 30.14 in 10.0 mi Calm Calm - N/A   Partly Cloudy
6:53 AM 37.9 °F - 28.0 °F 68% 30.16 in 10.0 mi Calm Calm - N/A   Partly Cloudy
7:53 AM 39.0 °F 36.8 °F 28.9 °F 67% 30.16 in 10.0 mi South 3.5 mph - N/A   Partly Cloudy
8:53 AM 43.0 °F 40.3 °F 28.9 °F 58% 30.17 in 10.0 mi SW 4.6 mph - N/A   Scattered Clouds
9:53 AM 48.9 °F - 35.1 °F 59% 30.18 in 10.0 mi South 4.6 mph - N/A   Scattered Clouds
10:53 AM 54.0 °F - 37.9 °F 55% 30.17 in 10.0 mi South 5.8 mph - N/A   Scattered Clouds
11:53 AM 60.1 °F - 39.9 °F 47% 30.14 in 10.0 mi SW 11.5 mph - N/A   Partly Cloudy
12:53 PM 63.0 °F - 42.1 °F 46% 30.10 in 10.0 mi WSW 17.3 mph - N/A   Partly Cloudy
1:53 PM 64.0 °F - 39.9 °F 41% 30.08 in 10.0 mi West 16.1 mph - N/A   Scattered Clouds
2:53 PM 66.0 °F - 39.9 °F 38% 30.05 in 10.0 mi WSW 12.7 mph - N/A   Scattered Clouds
3:53 PM 66.0 °F - 39.9 °F 38% 30.05 in 10.0 mi WSW 13.8 mph - N/A   Scattered Clouds
4:53 PM 66.0 °F - 39.9 °F 38% 30.03 in 10.0 mi SW 13.8 mph - N/A   Partly Cloudy
5:53 PM 64.0 °F - 42.1 °F 45% 30.04 in 10.0 mi SW 10.4 mph - N/A   Scattered Clouds
6:53 PM 62.1 °F - 43.0 °F 50% 30.05 in 10.0 mi SW 12.7 mph - N/A   Scattered Clouds
7:53 PM 60.1 °F - 45.0 °F 57% 30.06 in 10.0 mi SSW 12.7 mph - N/A   Scattered Clouds
8:53 PM 59.0 °F - 46.0 °F 62% 30.05 in 10.0 mi SSW 15.0 mph - N/A   Mostly Cloudy
9:53 PM 57.9 °F - 46.9 °F 67% 30.05 in 10.0 mi SSW 11.5 mph - N/A   Scattered Clouds
10:53 PM 57.0 °F - 46.9 °F 69% 30.07 in 10.0 mi SW 11.5 mph - N/A   Partly Cloudy
11:53 PM 55.9 °F - 46.0 °F 69% 30.07 in 10.0 mi WSW 16.1 mph - N/A   Clear